FW0132 Weather Reports


time (UTC)temp
F
wind
direction
speed
knots
gust
knots
rain 1hr
in
rain 24hr
in
rain mn
in
humidity
%
barometer
mb
20260507143040 52 286 0.0 0.0 0.00 0.00 0.00 92 1015.0
20260507141540 51 286 0.0 0.0 0.00 0.00 0.00 91 1015.0
20260507140035 50 286 0.0 0.0 0.00 0.00 0.00 93 1014.9
20260507134534 49 286 0.0 0.0 0.00 0.00 0.00 92 1014.9
20260507133036 49 285 0.0 0.0 0.00 0.00 0.00 91 1014.8
20260507131532 48 285 0.0 0.0 0.00 0.00 0.00 91 1014.7
20260507130030 48 286 0.0 0.0 0.00 0.00 0.00 90 1014.7
20260507124528 49 285 0.0 0.0 0.00 0.00 0.00 90 1014.4
20260507123028 49 286 0.0 0.0 0.00 0.00 0.00 90 1014.3
20260507121526 49 285 0.0 0.0 0.00 0.00 0.00 90 1014.3
20260507120026 49 284 0.0 0.0 0.00 0.00 0.00 91 1014.3
20260507114524 49 284 0.0 0.0 0.00 0.00 0.00 89 1014.3
20260507113023 50 284 0.0 0.0 0.00 0.00 0.00 89 1014.4
20260507111534 50 284 0.0 0.0 0.00 0.00 0.00 89 1014.5
20260507110020 50 284 0.0 0.0 0.00 0.00 0.00 90 1014.5
20260507104520 50 284 0.0 0.0 0.00 0.00 0.00 89 1014.5
20260507103015 51 284 0.0 0.0 0.00 0.00 0.00 88 1014.6
20260507101514 52 284 0.0 0.0 0.00 0.00 0.00 88 1014.8
20260507100017 52 284 0.0 0.0 0.00 0.00 0.00 88 1014.9
20260507094511 52 284 0.0 0.0 0.00 0.00 0.00 88 1014.8
20260507093009 52 284 0.0 0.0 0.00 0.00 0.00 86 1015.1
20260507091506 52 284 0.0 0.0 0.00 0.00 0.00 86 1015.1
20260507090007 53 284 0.0 0.0 0.00 0.00 0.00 86 1015.2
20260507084502 53 284 0.0 0.0 0.00 0.00 0.00 88 1015.3
20260507083100 53 284 0.0 0.0 0.00 0.00 0.00 86 1015.4
20260507081559 54 284 0.0 0.0 0.00 0.00 0.00 85 1015.6
20260507080059 54 284 0.0 0.0 0.00 0.00 0.00 85 1015.6
20260507074555 54 284 0.0 0.0 0.00 0.00 0.00 84 1015.7
20260507073100 55 284 0.0 0.0 0.00 0.00 0.00 83 1015.8
20260507071552 55 284 0.0 0.0 0.00 0.00 0.00 82 1015.9
20260507070055 55 284 0.0 0.9 0.00 0.00 0.00 83 1015.8
20260507064548 56 284 0.0 0.0 0.00 0.00 0.00 81 1015.8
20260507063050 56 284 0.0 0.0 0.00 0.00 0.00 80 1015.9
20260507061546 57 284 0.0 0.0 0.00 0.00 0.00 80 1015.7
20260507060057 57 284 0.0 0.0 0.00 0.00 0.00 78 1015.8
20260507054549 58 284 0.0 0.0 0.00 0.00 0.00 78 1015.8
20260507053053 58 284 0.0 0.0 0.00 0.00 0.00 77 1016.0
20260507051545 59 284 0.0 0.0 0.00 0.00 0.00 76 1015.9
20260507050044 60 284 0.0 0.0 0.00 0.00 0.00 74 1015.8
20260507044555 62 284 0.0 1.7 0.00 0.00 0.00 77 1015.8
20260507043044 62 284 0.0 1.7 0.00 0.00 0.00 76 1015.7
20260507041543 63 284 0.0 2.6 0.00 0.00 0.00 75 1015.7
20260507040043 63 284 0.0 1.7 0.00 0.00 0.00 74 1015.4
20260507034544 64 284 0.0 2.6 0.00 0.00 0.00 72 1015.4
20260507033043 64 290 0.0 4.3 0.00 0.00 0.00 70 1015.2
20260507031542 65 288 0.9 3.5 0.00 0.00 0.00 68 1015.0
20260507030041 65 288 0.9 4.3 0.00 0.00 0.00 64 1014.9
20260507024544 66 188 0.9 3.5 0.00 0.00 0.00 59 1014.8
20260507023041 67 259 2.6 6.1 0.00 0.00 0.00 56 1014.7
20260507021540 69 197 2.6 6.1 0.00 0.00 0.00 54 1014.6
20260507020047 70 149 0.9 5.2 0.00 0.00 0.00 52 1014.4
20260507014539 70 245 2.6 6.1 0.00 0.00 0.00 53 1014.3
20260507013051 71 199 3.5 8.7 0.00 0.00 0.00 53 1014.2
20260507011542 71 194 2.6 7.8 0.00 0.00 0.00 54 1014.2
20260507010043 72 261 4.3 10.4 0.00 0.00 0.00 55 1014.1
20260507004538 72 215 3.5 8.7 0.00 0.00 0.00 54 1013.9
20260507003037 73 255 4.3 8.7 0.00 0.00 0.00 54 1013.9
20260507001540 73 203 5.2 9.6 0.00 0.00 0.00 54 1013.7
20260507000037 74 237 3.5 11.3 0.00 0.00 0.00 54 1013.4
20260506234536 74 248 5.2 9.6 0.00 0.00 0.00 53 1013.4
20260506233036 74 212 6.1 9.6 0.00 0.00 0.00 53 1013.4
20260506231533 74 228 3.5 8.7 0.00 0.00 0.00 54 1013.4
20260506230033 74 261 3.5 12.2 0.00 0.00 0.00 54 1013.4
20260506224532 74 291 6.1 10.4 0.00 0.00 0.00 54 1013.6
20260506223031 74 207 6.1 11.3 0.00 0.00 0.00 54 1013.6
20260506221529 74 236 6.1 13.0 0.00 0.00 0.00 53 1013.8
20260506220034 75 242 7.8 13.0 0.00 0.00 0.00 52 1013.9
20260506214528 75 201 7.0 16.5 0.00 0.00 0.00 51 1013.9
20260506213026 75 257 5.2 12.2 0.00 0.00 0.00 51 1014.1
20260506211526 75 240 6.1 13.0 0.00 0.00 0.00 51 1014.3
20260506210025 75 264 5.2 11.3 0.00 0.00 0.00 51 1014.2
20260506204524 75 226 5.2 14.8 0.00 0.00 0.00 51 1014.3
20260506203027 76 257 5.2 13.0 0.00 0.00 0.00 49 1014.4
20260506201521 77 240 3.5 8.7 0.00 0.00 0.00 45 1014.5
20260506200018 76 198 2.6 8.7 0.00 0.00 0.00 43 1014.7
20260506194516 76 215 2.6 9.6 0.00 0.00 0.00 43 1015.0
20260506193013 75 252 1.7 8.7 0.00 0.00 0.00 45 1015.0
20260506191509 74 201 0.9 8.7 0.00 0.00 0.00 46 1015.3
20260506190007 73 221 1.7 8.7 0.00 0.00 0.00 47 1015.4
20260506184503 72 192 3.5 7.8 0.00 0.00 0.00 48 1015.5
20260506183109 72 194 1.7 7.0 0.00 0.00 0.00 50 1015.7
20260506181600 71 180 0.9 6.1 0.00 0.00 0.00 50 1015.9
20260506180054 70 159 0.9 5.2 0.00 0.00 0.00 53 1016.2
20260506174550 69 177 0.9 5.2 0.00 0.00 0.00 55 1016.3
20260506173048 68 140 0.9 2.6 0.00 0.00 0.00 55 1016.4
20260506171552 67 245 0.0 3.5 0.00 0.00 0.00 56 1016.6
20260506170040 66 172 0.0 1.7 0.00 0.00 0.00 60 1016.7
20260506164535 64 208 0.0 1.7 0.00 0.01 0.00 62 1016.8
20260506163038 62 236 0.0 4.3 0.00 0.01 0.00 68 1016.9
20260506161525 60 180 0.9 2.6 0.00 0.01 0.00 70 1016.9
20260506160021 59 180 0.0 0.0 0.00 0.01 0.00 74 1016.9
20260506154516 57 180 0.0 0.0 0.00 0.01 0.00 76 1017.0
20260506153012 56 180 0.0 0.0 0.00 0.01 0.00 80 1017.0
20260506151512 55 180 0.0 0.0 0.00 0.01 0.00 84 1017.1
20260506150006 53 180 0.0 0.0 0.00 0.01 0.00 88 1017.2
20260506144605 51 180 0.0 0.0 0.00 0.01 0.00 91 1017.2